Year,Month,Day,Hour,Minute,Value (Times are PST for temperature in C)
2011,08,22,00,00,20.60
2011,08,22,00,01,20.60
2011,08,22,00,02,20.60
2011,08,22,00,03,20.60
2011,08,22,00,04,20.60
2011,08,22,00,05,20.60
2011,08,22,00,06,20.60
2011,08,22,00,07,20.60
2011,08,22,00,08,20.70
2011,08,22,00,09,20.70
2011,08,22,00,10,20.70
2011,08,22,00,11,20.80
2011,08,22,00,12,20.90
2011,08,22,00,13,21.00
2011,08,22,00,14,21.00
2011,08,22,00,15,21.10
2011,08,22,00,16,21.20
2011,08,22,00,17,21.20
2011,08,22,00,18,21.30
2011,08,22,00,19,21.30
2011,08,22,00,20,21.40
2011,08,22,00,21,21.50
2011,08,22,00,22,21.50
2011,08,22,00,23,21.60
2011,08,22,00,24,21.70
2011,08,22,00,25,21.70
2011,08,22,00,26,21.80
2011,08,22,00,27,21.80
2011,08,22,00,28,21.80
2011,08,22,00,29,21.80
2011,08,22,00,30,21.80
2011,08,22,00,31,21.80
2011,08,22,00,32,21.80
2011,08,22,00,33,21.70
2011,08,22,00,34,21.70
2011,08,22,00,35,21.70
2011,08,22,00,36,21.70
2011,08,22,00,37,21.70
2011,08,22,00,38,21.70
2011,08,22,00,39,21.70
2011,08,22,00,40,21.60
2011,08,22,00,41,21.60
2011,08,22,00,42,21.60
2011,08,22,00,43,21.60
2011,08,22,00,44,21.60
2011,08,22,00,45,21.60
2011,08,22,00,46,21.60
2011,08,22,00,47,21.60
2011,08,22,00,48,21.60
2011,08,22,00,49,21.70
2011,08,22,00,50,21.70
2011,08,22,00,51,21.60
2011,08,22,00,52,21.60
2011,08,22,00,53,21.60
2011,08,22,00,54,21.60
2011,08,22,00,55,21.60
2011,08,22,00,56,21.60
2011,08,22,00,57,21.50
2011,08,22,00,58,21.50
2011,08,22,00,59,21.50
2011,08,22,01,00,21.50
2011,08,22,01,01,21.50
2011,08,22,01,02,21.40
2011,08,22,01,03,21.40
2011,08,22,01,04,21.40
2011,08,22,01,05,21.40
2011,08,22,01,06,21.40
2011,08,22,01,07,21.30
2011,08,22,01,08,21.30
2011,08,22,01,09,21.30
2011,08,22,01,10,21.30
2011,08,22,01,11,21.30
2011,08,22,01,12,21.30
2011,08,22,01,13,21.30
2011,08,22,01,14,21.30
2011,08,22,01,15,21.30
2011,08,22,01,16,21.30
2011,08,22,01,17,21.30
2011,08,22,01,18,21.30
2011,08,22,01,19,21.30
2011,08,22,01,20,21.20
2011,08,22,01,21,21.20
2011,08,22,01,22,21.20
2011,08,22,01,23,21.20
2011,08,22,01,24,21.20
2011,08,22,01,25,21.20
2011,08,22,01,26,21.20
2011,08,22,01,27,21.20
2011,08,22,01,28,21.20
2011,08,22,01,29,21.20
2011,08,22,01,30,21.20
2011,08,22,01,31,21.20
2011,08,22,01,32,21.20
2011,08,22,01,33,21.20
2011,08,22,01,34,21.10
2011,08,22,01,35,21.10
2011,08,22,01,36,21.10
2011,08,22,01,37,21.10
2011,08,22,01,38,21.10
2011,08,22,01,39,21.10
2011,08,22,01,40,21.10
2011,08,22,01,41,21.10
2011,08,22,01,42,21.10
2011,08,22,01,43,21.10
2011,08,22,01,44,21.10
2011,08,22,01,45,21.10
2011,08,22,01,46,21.10
2011,08,22,01,47,21.10
2011,08,22,01,48,21.10
2011,08,22,01,49,21.10
2011,08,22,01,50,21.10
2011,08,22,01,51,21.10
2011,08,22,01,52,21.10
2011,08,22,01,53,21.10
2011,08,22,01,54,21.10
2011,08,22,01,55,21.10
2011,08,22,01,56,21.10
2011,08,22,01,57,21.10
2011,08,22,01,58,21.10
2011,08,22,01,59,21.10
2011,08,22,02,00,21.10
2011,08,22,02,01,21.10
2011,08,22,02,02,21.10
2011,08,22,02,03,21.10
2011,08,22,02,04,21.00
2011,08,22,02,05,21.00
2011,08,22,02,06,21.00
2011,08,22,02,07,21.00
2011,08,22,02,08,21.00
2011,08,22,02,09,21.00
2011,08,22,02,10,21.00
2011,08,22,02,11,20.90
2011,08,22,02,12,20.90
2011,08,22,02,13,20.90
2011,08,22,02,14,20.90
2011,08,22,02,15,20.90
2011,08,22,02,16,20.90
2011,08,22,02,17,20.90
2011,08,22,02,18,20.90
2011,08,22,02,19,20.90
2011,08,22,02,20,20.90
2011,08,22,02,21,20.90
2011,08,22,02,22,20.90
2011,08,22,02,23,20.90
2011,08,22,02,24,20.90
2011,08,22,02,25,20.90
2011,08,22,02,26,20.80
2011,08,22,02,27,20.80
2011,08,22,02,28,20.80
2011,08,22,02,29,20.80
2011,08,22,02,30,20.80
2011,08,22,02,31,20.80
2011,08,22,02,32,20.80
2011,08,22,02,33,20.80
2011,08,22,02,34,20.80
2011,08,22,02,35,20.80
2011,08,22,02,36,20.80
2011,08,22,02,37,20.80
2011,08,22,02,38,20.80
2011,08,22,02,39,20.80
2011,08,22,02,40,20.80
2011,08,22,02,41,20.90
2011,08,22,02,42,20.90
2011,08,22,02,43,20.90
2011,08,22,02,44,20.90
2011,08,22,02,45,20.80
2011,08,22,02,46,20.80
2011,08,22,02,47,20.80
2011,08,22,02,48,20.80
2011,08,22,02,49,20.80
2011,08,22,02,50,20.80
2011,08,22,02,51,20.80
2011,08,22,02,52,20.80
2011,08,22,02,53,20.70
2011,08,22,02,54,20.70
2011,08,22,02,55,20.70
2011,08,22,02,56,20.70
2011,08,22,02,57,20.70
2011,08,22,02,58,20.80
2011,08,22,02,59,20.80
2011,08,22,03,00,20.80
2011,08,22,03,01,20.80
2011,08,22,03,02,20.80
2011,08,22,03,03,20.80
2011,08,22,03,04,20.80
2011,08,22,03,05,20.80
2011,08,22,03,06,20.80
2011,08,22,03,07,20.80
2011,08,22,03,08,20.80
2011,08,22,03,09,20.80
2011,08,22,03,10,20.80
2011,08,22,03,11,20.70
2011,08,22,03,12,20.70
2011,08,22,03,13,20.70
2011,08,22,03,14,20.70
2011,08,22,03,15,20.70
2011,08,22,03,16,20.70
2011,08,22,03,17,20.70
2011,08,22,03,18,20.70
2011,08,22,03,19,20.60
2011,08,22,03,20,20.60
2011,08,22,03,21,20.60
2011,08,22,03,22,20.60
2011,08,22,03,23,20.60
2011,08,22,03,24,20.60
2011,08,22,03,25,20.60
2011,08,22,03,26,20.60
2011,08,22,03,27,20.70
2011,08,22,03,28,20.70
2011,08,22,03,29,20.70
2011,08,22,03,30,20.70
2011,08,22,03,31,20.70
2011,08,22,03,32,20.70
2011,08,22,03,33,20.70
2011,08,22,03,34,20.70
2011,08,22,03,35,20.70
2011,08,22,03,36,20.70
2011,08,22,03,37,20.70
2011,08,22,03,38,20.70
2011,08,22,03,39,20.70
2011,08,22,03,40,20.70
2011,08,22,03,41,20.70
2011,08,22,03,42,20.70
2011,08,22,03,43,20.70
2011,08,22,03,44,20.70
2011,08,22,03,45,20.70
2011,08,22,03,46,20.80
2011,08,22,03,47,20.80
2011,08,22,03,48,20.80
2011,08,22,03,49,20.80
2011,08,22,03,50,20.90
2011,08,22,03,51,20.90
2011,08,22,03,52,20.90
2011,08,22,03,53,20.90
2011,08,22,03,54,20.90
2011,08,22,03,55,20.90
2011,08,22,03,56,20.90
2011,08,22,03,57,20.90
2011,08,22,03,58,20.90
2011,08,22,03,59,20.90
2011,08,22,04,00,20.90
2011,08,22,04,01,20.90
2011,08,22,04,02,20.90
2011,08,22,04,03,20.90
2011,08,22,04,04,20.90
2011,08,22,04,05,20.90
2011,08,22,04,06,20.90
2011,08,22,04,07,20.90
2011,08,22,04,08,20.90
2011,08,22,04,09,20.90
2011,08,22,04,10,20.90
2011,08,22,04,11,20.90
2011,08,22,04,12,20.90
2011,08,22,04,13,20.80
2011,08,22,04,14,20.80
2011,08,22,04,15,20.80
2011,08,22,04,16,20.80
2011,08,22,04,17,20.80
2011,08,22,04,18,20.80
2011,08,22,04,19,20.70
2011,08,22,04,20,20.70
2011,08,22,04,21,20.70
2011,08,22,04,22,20.60
2011,08,22,04,23,20.60
2011,08,22,04,24,20.60
2011,08,22,04,25,20.50
2011,08,22,04,26,20.50
2011,08,22,04,27,20.40
2011,08,22,04,28,20.40
2011,08,22,04,29,20.40
2011,08,22,04,30,20.40
2011,08,22,04,31,20.30
2011,08,22,04,32,20.30
2011,08,22,04,33,20.30
2011,08,22,04,34,20.30
2011,08,22,04,35,20.20
2011,08,22,04,36,20.20
2011,08,22,04,37,20.20
2011,08,22,04,38,20.20
2011,08,22,04,39,20.10
2011,08,22,04,40,20.10
2011,08,22,04,41,20.10
2011,08,22,04,42,20.10
2011,08,22,04,43,20.10
2011,08,22,04,44,20.10
2011,08,22,04,45,20.10
2011,08,22,04,46,20.10
2011,08,22,04,47,20.10
2011,08,22,04,48,20.10
2011,08,22,04,49,20.10
2011,08,22,04,50,20.00
2011,08,22,04,51,20.00
2011,08,22,04,52,20.00
2011,08,22,04,53,20.00
2011,08,22,04,54,20.00
2011,08,22,04,55,20.10
2011,08,22,04,56,20.10
2011,08,22,04,57,20.00
2011,08,22,04,58,20.00
2011,08,22,04,59,20.00
2011,08,22,05,00,20.00
2011,08,22,05,01,20.00
2011,08,22,05,02,19.90
2011,08,22,05,03,19.90
2011,08,22,05,04,19.90
2011,08,22,05,05,19.90
2011,08,22,05,06,19.90
2011,08,22,05,07,19.90
2011,08,22,05,08,19.90
2011,08,22,05,09,19.90
2011,08,22,05,10,19.90
2011,08,22,05,11,19.90
2011,08,22,05,12,19.90
2011,08,22,05,13,19.90
2011,08,22,05,14,19.80
2011,08,22,05,15,19.80
2011,08,22,05,16,19.80
2011,08,22,05,17,19.80
2011,08,22,05,18,19.80
2011,08,22,05,19,19.80
2011,08,22,05,20,19.80
2011,08,22,05,21,19.80
2011,08,22,05,22,19.80
2011,08,22,05,23,19.80
2011,08,22,05,24,19.80
2011,08,22,05,25,19.70
2011,08,22,05,26,19.70
2011,08,22,05,27,19.70
2011,08,22,05,28,19.60
2011,08,22,05,29,19.60
2011,08,22,05,30,19.60
2011,08,22,05,31,19.60
2011,08,22,05,32,19.60
2011,08,22,05,33,19.60
2011,08,22,05,34,19.60
2011,08,22,05,35,19.50
2011,08,22,05,36,19.50
2011,08,22,05,37,19.50
2011,08,22,05,38,19.50
2011,08,22,05,39,19.40
2011,08,22,05,40,19.40
2011,08,22,05,41,19.40
2011,08,22,05,42,19.40
2011,08,22,05,43,19.30
2011,08,22,05,44,19.30
2011,08,22,05,45,19.30
2011,08,22,05,46,19.20
2011,08,22,05,47,19.20
2011,08,22,05,48,19.10
2011,08,22,05,49,19.10
2011,08,22,05,50,19.10
2011,08,22,05,51,19.00
2011,08,22,05,52,19.00
2011,08,22,05,53,18.90
2011,08,22,05,54,18.90
2011,08,22,05,55,18.90
2011,08,22,05,56,18.90
2011,08,22,05,57,18.80
2011,08,22,05,58,18.80
2011,08,22,05,59,18.80
2011,08,22,06,00,18.80
2011,08,22,06,01,18.70
2011,08,22,06,02,18.70
2011,08,22,06,03,18.70
2011,08,22,06,04,18.60
2011,08,22,06,05,18.60
2011,08,22,06,06,18.60
2011,08,22,06,07,18.50
2011,08,22,06,08,18.40
2011,08,22,06,09,18.40
2011,08,22,06,10,18.30
2011,08,22,06,11,18.30
2011,08,22,06,12,18.30
2011,08,22,06,13,18.20
2011,08,22,06,14,18.20
2011,08,22,06,15,18.10
2011,08,22,06,16,18.10
2011,08,22,06,17,18.10
2011,08,22,06,18,18.00
2011,08,22,06,19,18.00
2011,08,22,06,20,18.00
2011,08,22,06,21,17.90
2011,08,22,06,22,17.90
2011,08,22,06,23,17.90
2011,08,22,06,24,17.90
2011,08,22,06,25,17.90
2011,08,22,06,26,17.80
2011,08,22,06,27,17.80
2011,08,22,06,28,17.80
2011,08,22,06,29,17.80
2011,08,22,06,30,17.80
2011,08,22,06,31,17.80
2011,08,22,06,32,17.70
2011,08,22,06,33,17.70
2011,08,22,06,34,17.70
2011,08,22,06,35,17.70
2011,08,22,06,36,17.70
2011,08,22,06,37,17.70
2011,08,22,06,38,17.70
2011,08,22,06,39,17.60
2011,08,22,06,40,17.60
2011,08,22,06,41,17.60
2011,08,22,06,42,17.60
2011,08,22,06,43,17.60
2011,08,22,06,44,17.60
2011,08,22,06,45,17.50
2011,08,22,06,46,17.50
2011,08,22,06,47,17.50
2011,08,22,06,48,17.50
2011,08,22,06,49,17.50
2011,08,22,06,50,17.50
2011,08,22,06,51,17.50
2011,08,22,06,52,17.40
2011,08,22,06,53,17.40
2011,08,22,06,54,17.40
2011,08,22,06,55,17.40
2011,08,22,06,56,17.40
2011,08,22,06,57,17.40
2011,08,22,06,58,17.40
2011,08,22,06,59,17.40
2011,08,22,07,00,17.40
2011,08,22,07,01,17.40
2011,08,22,07,02,17.40
2011,08,22,07,03,17.40
2011,08,22,07,04,17.40
2011,08,22,07,05,17.40
2011,08,22,07,06,17.40
2011,08,22,07,07,17.40
2011,08,22,07,08,17.40
2011,08,22,07,09,17.40
2011,08,22,07,10,17.40
2011,08,22,07,11,17.40
2011,08,22,07,12,17.40
2011,08,22,07,13,17.40
2011,08,22,07,14,17.40
2011,08,22,07,15,17.40
2011,08,22,07,16,17.40
2011,08,22,07,17,17.40
2011,08,22,07,18,17.40
2011,08,22,07,19,17.40
2011,08,22,07,20,17.40
2011,08,22,07,21,17.40
2011,08,22,07,22,17.40
2011,08,22,07,23,17.40
2011,08,22,07,24,17.40
2011,08,22,07,25,17.40
2011,08,22,07,26,17.40
2011,08,22,07,27,17.40
2011,08,22,07,28,17.40
2011,08,22,07,29,17.40
2011,08,22,07,30,17.40
2011,08,22,07,31,17.40
2011,08,22,07,32,17.40
2011,08,22,07,33,17.40
2011,08,22,07,34,17.40
2011,08,22,07,35,17.40
2011,08,22,07,36,17.50
2011,08,22,07,37,17.40
2011,08,22,07,38,17.40
2011,08,22,07,39,17.40
2011,08,22,07,40,17.40
2011,08,22,07,41,17.40
2011,08,22,07,42,17.40
2011,08,22,07,43,17.40
2011,08,22,07,44,17.40
2011,08,22,07,45,17.40
2011,08,22,07,46,17.40
2011,08,22,07,47,17.40
2011,08,22,07,48,17.40
2011,08,22,07,49,17.40
2011,08,22,07,50,17.40
2011,08,22,07,51,17.40
2011,08,22,07,52,17.40
2011,08,22,07,53,17.40
2011,08,22,07,54,17.40
2011,08,22,07,55,17.40
2011,08,22,07,56,17.40
2011,08,22,07,57,17.40
2011,08,22,07,58,17.40
2011,08,22,07,59,17.40
2011,08,22,08,00,17.40
2011,08,22,08,01,17.30
2011,08,22,08,02,17.30
2011,08,22,08,03,17.30
2011,08,22,08,04,17.30
2011,08,22,08,05,17.30
2011,08,22,08,06,17.30
2011,08,22,08,07,17.30
2011,08,22,08,08,17.30
2011,08,22,08,09,17.40
2011,08,22,08,10,17.40
2011,08,22,08,11,17.40
2011,08,22,08,12,17.40
2011,08,22,08,13,17.40
2011,08,22,08,14,17.40
2011,08,22,08,15,17.40
2011,08,22,08,16,17.40
2011,08,22,08,17,17.40
2011,08,22,08,18,17.40
2011,08,22,08,19,17.40
2011,08,22,08,20,17.40
2011,08,22,08,21,17.40
2011,08,22,08,22,17.50
2011,08,22,08,23,17.50
2011,08,22,08,24,17.50
2011,08,22,08,25,17.50
2011,08,22,08,26,17.50
2011,08,22,08,27,17.60
2011,08,22,08,28,17.60
2011,08,22,08,29,17.60
2011,08,22,08,30,17.60
2011,08,22,08,31,17.60
2011,08,22,08,32,17.60
2011,08,22,08,33,17.60
2011,08,22,08,34,17.60
2011,08,22,08,35,17.60
2011,08,22,08,36,17.60
2011,08,22,08,37,17.60
2011,08,22,08,38,17.60
2011,08,22,08,39,17.60
2011,08,22,08,40,17.60
2011,08,22,08,41,17.60
2011,08,22,08,42,17.60
2011,08,22,08,43,17.60
2011,08,22,08,44,17.60
2011,08,22,08,45,17.60
2011,08,22,08,46,17.60
2011,08,22,08,47,17.60
2011,08,22,08,48,17.60
2011,08,22,08,49,17.60
2011,08,22,08,50,17.60
2011,08,22,08,51,17.60
2011,08,22,08,52,17.60
2011,08,22,08,53,17.60
2011,08,22,08,54,17.60
2011,08,22,08,55,17.60
2011,08,22,08,56,17.60
2011,08,22,08,57,17.60
2011,08,22,08,58,17.60
2011,08,22,08,59,17.60
2011,08,22,09,00,17.70
2011,08,22,09,01,17.60
2011,08,22,09,02,17.60
2011,08,22,09,03,17.70
2011,08,22,09,04,17.60
2011,08,22,09,05,17.60
2011,08,22,09,06,17.70
2011,08,22,09,07,17.70
2011,08,22,09,08,17.70
2011,08,22,09,09,17.70
2011,08,22,09,10,17.70
2011,08,22,09,11,17.70
2011,08,22,09,12,17.70
2011,08,22,09,13,17.70
2011,08,22,09,14,17.70
2011,08,22,09,15,17.70
2011,08,22,09,16,17.70
2011,08,22,09,17,17.70
2011,08,22,09,18,17.70
2011,08,22,09,19,17.70
2011,08,22,09,20,17.70
2011,08,22,09,21,17.70
2011,08,22,09,22,17.70
2011,08,22,09,23,17.70
2011,08,22,09,24,17.70
2011,08,22,09,25,17.70
2011,08,22,09,26,17.70
2011,08,22,09,27,17.70
2011,08,22,09,28,17.70
2011,08,22,09,29,17.70
2011,08,22,09,30,17.70
2011,08,22,09,31,17.70
2011,08,22,09,32,17.70
2011,08,22,09,33,17.70
2011,08,22,09,34,17.70
2011,08,22,09,35,17.70
2011,08,22,09,36,17.70
2011,08,22,09,37,17.80
2011,08,22,09,38,17.80
2011,08,22,09,39,17.80
2011,08,22,09,40,17.80
2011,08,22,09,41,17.80
2011,08,22,09,42,17.80
2011,08,22,09,43,17.80
2011,08,22,09,44,17.80
2011,08,22,09,45,17.80
2011,08,22,09,46,17.90
2011,08,22,09,47,17.90
2011,08,22,09,48,17.90
2011,08,22,09,49,17.90
2011,08,22,09,50,17.90
2011,08,22,09,51,17.90
2011,08,22,09,52,17.90
2011,08,22,09,53,18.00
2011,08,22,09,54,18.00
2011,08,22,09,55,18.00
2011,08,22,09,56,18.00
2011,08,22,09,57,18.00
2011,08,22,09,58,18.10
2011,08,22,09,59,18.10
2011,08,22,10,00,18.10
2011,08,22,10,01,18.10
2011,08,22,10,02,18.10
2011,08,22,10,03,18.10
2011,08,22,10,04,18.10
2011,08,22,10,05,18.10
2011,08,22,10,06,18.10
2011,08,22,10,07,18.10
2011,08,22,10,08,18.10
2011,08,22,10,09,18.10
2011,08,22,10,10,18.10
2011,08,22,10,11,18.10
2011,08,22,10,12,18.10
2011,08,22,10,13,18.10
2011,08,22,10,14,18.10
2011,08,22,10,15,18.10
2011,08,22,10,16,18.10
2011,08,22,10,17,18.10
2011,08,22,10,18,18.10
2011,08,22,10,19,18.10
2011,08,22,10,20,18.20
2011,08,22,10,21,18.20
2011,08,22,10,22,18.20
2011,08,22,10,23,18.20
2011,08,22,10,24,18.20
2011,08,22,10,25,18.20
2011,08,22,10,26,18.20
2011,08,22,10,27,18.20
2011,08,22,10,28,18.20
2011,08,22,10,29,18.20
2011,08,22,10,30,18.10
2011,08,22,10,31,18.20
2011,08,22,10,32,18.10
2011,08,22,10,33,18.10
2011,08,22,10,34,18.10
2011,08,22,10,35,18.20
2011,08,22,10,36,18.20
2011,08,22,10,37,18.20
2011,08,22,10,38,18.20
2011,08,22,10,39,18.20
2011,08,22,10,40,18.20
2011,08,22,10,41,18.20
2011,08,22,10,42,18.20
2011,08,22,10,43,18.20
2011,08,22,10,44,18.20
2011,08,22,10,45,18.20
2011,08,22,10,46,18.20
2011,08,22,10,47,18.20
2011,08,22,10,48,18.20
2011,08,22,10,49,18.20
2011,08,22,10,50,18.20
2011,08,22,10,51,18.20
2011,08,22,10,52,18.20
2011,08,22,10,53,18.20
2011,08,22,10,54,18.20
2011,08,22,10,55,18.30
2011,08,22,10,56,18.30
2011,08,22,10,57,18.30
2011,08,22,10,58,18.30
2011,08,22,10,59,18.30
2011,08,22,11,00,18.30
2011,08,22,11,01,18.30
2011,08,22,11,02,18.30
2011,08,22,11,03,18.30
2011,08,22,11,04,18.30
2011,08,22,11,05,18.30
2011,08,22,11,06,18.40
2011,08,22,11,07,18.40
2011,08,22,11,08,18.40
2011,08,22,11,09,18.40
2011,08,22,11,10,18.50
2011,08,22,11,11,18.50
2011,08,22,11,12,18.60
2011,08,22,11,13,18.60
2011,08,22,11,14,18.70
2011,08,22,11,15,18.70
2011,08,22,11,16,18.70
2011,08,22,11,17,18.70
2011,08,22,11,18,18.70
2011,08,22,11,19,18.80
2011,08,22,11,20,18.80
2011,08,22,11,21,18.80
2011,08,22,11,22,18.80
2011,08,22,11,23,18.80
2011,08,22,11,24,18.80
2011,08,22,11,25,18.80
2011,08,22,11,26,18.80
2011,08,22,11,27,18.80
2011,08,22,11,28,18.80
2011,08,22,11,29,18.90
2011,08,22,11,30,18.90
2011,08,22,11,31,18.90
2011,08,22,11,32,18.90
2011,08,22,11,33,18.90
2011,08,22,11,34,18.90
2011,08,22,11,35,18.90
2011,08,22,11,36,18.90
2011,08,22,11,37,18.90
2011,08,22,11,38,19.00
2011,08,22,11,39,19.00
2011,08,22,11,40,19.00
2011,08,22,11,41,19.00
2011,08,22,11,42,18.90
2011,08,22,11,43,18.90
2011,08,22,11,44,18.90
2011,08,22,11,45,18.90
2011,08,22,11,46,18.90
2011,08,22,11,47,18.90
2011,08,22,11,48,19.00
2011,08,22,11,49,19.00
2011,08,22,11,50,19.10
2011,08,22,11,51,19.10
2011,08,22,11,52,19.20
2011,08,22,11,53,19.20
2011,08,22,11,54,19.30
2011,08,22,11,55,19.30
2011,08,22,11,56,19.30
2011,08,22,11,57,19.40
2011,08,22,11,58,19.40
2011,08,22,11,59,19.40
2011,08,22,12,00,19.50
2011,08,22,12,01,19.50
2011,08,22,12,02,19.50
2011,08,22,12,03,19.50
2011,08,22,12,04,19.50
2011,08,22,12,05,19.50
2011,08,22,12,06,19.50
2011,08,22,12,07,19.50
2011,08,22,12,08,19.50
2011,08,22,12,09,19.50
2011,08,22,12,10,19.60
2011,08,22,12,11,19.60
2011,08,22,12,12,19.60
2011,08,22,12,13,19.60
2011,08,22,12,14,19.60
2011,08,22,12,15,19.60
2011,08,22,12,16,19.70
2011,08,22,12,17,19.70
2011,08,22,12,18,19.70
2011,08,22,12,19,19.80
2011,08,22,12,20,19.80
2011,08,22,12,21,19.80
2011,08,22,12,22,19.90
2011,08,22,12,23,19.90
2011,08,22,12,24,19.90
2011,08,22,12,25,19.90
2011,08,22,12,26,19.90
2011,08,22,12,27,20.00
2011,08,22,12,28,20.00
2011,08,22,12,29,20.10
2011,08,22,12,30,20.20
2011,08,22,12,31,20.30
2011,08,22,12,32,20.30
2011,08,22,12,33,20.40
2011,08,22,12,34,20.40
2011,08,22,12,35,20.40
2011,08,22,12,36,20.50
2011,08,22,12,37,20.50
2011,08,22,12,38,20.50
2011,08,22,12,39,20.60
2011,08,22,12,40,20.60
2011,08,22,12,41,20.60
2011,08,22,12,42,20.70
2011,08,22,12,43,20.70
2011,08,22,12,44,20.80
2011,08,22,12,45,20.80
2011,08,22,12,46,20.90
2011,08,22,12,47,20.90
2011,08,22,12,48,21.00
2011,08,22,12,49,21.00
2011,08,22,12,50,21.10
2011,08,22,12,51,21.20
2011,08,22,12,52,21.20
2011,08,22,12,53,21.30
2011,08,22,12,54,21.40
2011,08,22,12,55,21.40
2011,08,22,12,56,21.50
2011,08,22,12,57,21.60
2011,08,22,12,58,21.60
2011,08,22,12,59,21.60
2011,08,22,13,00,21.60
2011,08,22,13,01,21.60
2011,08,22,13,02,21.50
2011,08,22,13,03,21.50
2011,08,22,13,04,21.50
2011,08,22,13,05,21.40
2011,08,22,13,06,21.40
2011,08,22,13,07,21.40
2011,08,22,13,08,21.40
2011,08,22,13,09,21.40
2011,08,22,13,10,21.40
2011,08,22,13,11,21.50
2011,08,22,13,12,21.50
2011,08,22,13,13,21.50
2011,08,22,13,14,21.50
2011,08,22,13,15,21.50
2011,08,22,13,16,21.50
2011,08,22,13,17,21.50
2011,08,22,13,18,21.50
2011,08,22,13,19,21.50
2011,08,22,13,20,21.50
2011,08,22,13,21,21.60
2011,08,22,13,22,21.60
2011,08,22,13,23,21.70
2011,08,22,13,24,21.70
2011,08,22,13,25,21.70
2011,08,22,13,26,21.70
2011,08,22,13,27,21.70
2011,08,22,13,28,21.80
2011,08,22,13,29,21.80
2011,08,22,13,30,21.80
2011,08,22,13,31,21.80
2011,08,22,13,32,21.80
2011,08,22,13,33,21.80
2011,08,22,13,34,21.80
2011,08,22,13,35,21.70
2011,08,22,13,36,21.70
2011,08,22,13,37,21.60
2011,08,22,13,38,21.60
2011,08,22,13,39,21.50
2011,08,22,13,40,21.40
2011,08,22,13,41,21.40
2011,08,22,13,42,21.40
2011,08,22,13,43,21.40
2011,08,22,13,44,21.40
2011,08,22,13,45,21.30
2011,08,22,13,46,21.30
2011,08,22,13,47,21.30
2011,08,22,13,48,21.20
2011,08,22,13,49,21.20
2011,08,22,13,50,21.20
2011,08,22,13,51,21.20
2011,08,22,13,52,21.20
2011,08,22,13,53,21.20
2011,08,22,13,54,21.30
2011,08,22,13,55,21.30
2011,08,22,13,56,21.40
2011,08,22,13,57,21.40
2011,08,22,13,58,21.50
2011,08,22,13,59,21.60
2011,08,22,14,00,21.60
2011,08,22,14,01,21.60
2011,08,22,14,02,21.70
2011,08,22,14,03,21.70
2011,08,22,14,04,21.70
2011,08,22,14,05,21.70
2011,08,22,14,06,21.70
2011,08,22,14,07,21.70
2011,08,22,14,08,21.70
2011,08,22,14,09,21.60
2011,08,22,14,10,21.60
2011,08,22,14,11,21.70
2011,08,22,14,12,21.70
2011,08,22,14,13,21.80
2011,08,22,14,14,21.80
2011,08,22,14,15,21.90
2011,08,22,14,16,22.00
2011,08,22,14,17,22.00
2011,08,22,14,18,22.10
2011,08,22,14,19,22.10
2011,08,22,14,20,22.10
2011,08,22,14,21,22.10
2011,08,22,14,22,22.10
2011,08,22,14,23,22.10
2011,08,22,14,24,22.20
2011,08,22,14,25,22.20
2011,08,22,14,26,22.30
2011,08,22,14,27,22.40
2011,08,22,14,28,22.50
2011,08,22,14,29,22.50
2011,08,22,14,30,22.60
2011,08,22,14,31,22.80
2011,08,22,14,32,22.90
2011,08,22,14,33,23.00
2011,08,22,14,34,23.10
2011,08,22,14,35,23.10
2011,08,22,14,36,23.10
2011,08,22,14,37,23.10
2011,08,22,14,38,23.10
2011,08,22,14,39,23.10
2011,08,22,14,40,23.10
2011,08,22,14,41,23.10
2011,08,22,14,42,23.10
2011,08,22,14,43,23.10
2011,08,22,14,44,23.10
2011,08,22,14,45,23.20
2011,08,22,14,46,23.20
2011,08,22,14,47,23.30
2011,08,22,14,48,23.30
2011,08,22,14,49,23.40
2011,08,22,14,50,23.40
2011,08,22,14,51,23.40
2011,08,22,14,52,23.50
2011,08,22,14,53,23.60
2011,08,22,14,54,23.70
2011,08,22,14,55,23.70
2011,08,22,14,56,23.60
2011,08,22,14,57,23.70
2011,08,22,14,58,23.70
2011,08,22,14,59,23.70
2011,08,22,15,00,23.70
2011,08,22,15,01,23.70
2011,08,22,15,02,23.80
2011,08,22,15,03,23.80
2011,08,22,15,04,23.80
2011,08,22,15,05,23.80
2011,08,22,15,06,23.80
2011,08,22,15,07,23.80
2011,08,22,15,08,23.80
2011,08,22,15,09,23.80
2011,08,22,15,10,23.80
2011,08,22,15,11,23.80
2011,08,22,15,12,23.70
2011,08,22,15,13,23.70
2011,08,22,15,14,23.60
2011,08,22,15,15,23.60
2011,08,22,15,16,23.60
2011,08,22,15,17,23.60
2011,08,22,15,18,23.50
2011,08,22,15,19,23.50
2011,08,22,15,20,23.50
2011,08,22,15,21,23.40
2011,08,22,15,22,23.40
2011,08,22,15,23,23.30
2011,08,22,15,24,23.20
2011,08,22,15,25,23.20
2011,08,22,15,26,23.10
2011,08,22,15,27,23.10
2011,08,22,15,28,23.10
2011,08,22,15,29,23.00
2011,08,22,15,30,23.00
2011,08,22,15,31,23.00
2011,08,22,15,32,22.90
2011,08,22,15,33,22.90
2011,08,22,15,34,22.90
2011,08,22,15,35,22.80
2011,08,22,15,36,22.80
2011,08,22,15,37,22.70
2011,08,22,15,38,22.60
2011,08,22,15,39,22.50
2011,08,22,15,40,22.40
2011,08,22,15,41,22.30
2011,08,22,15,42,22.10
2011,08,22,15,43,22.00
2011,08,22,15,44,21.90
2011,08,22,15,45,21.70
2011,08,22,15,46,21.50
2011,08,22,15,47,21.30
2011,08,22,15,48,21.10
2011,08,22,15,49,21.00
2011,08,22,15,50,20.80
2011,08,22,15,51,20.80
2011,08,22,15,52,20.70
2011,08,22,15,53,20.60
2011,08,22,15,54,20.60
2011,08,22,15,55,20.60
2011,08,22,15,56,20.60
2011,08,22,15,57,20.60
2011,08,22,15,58,20.60
2011,08,22,15,59,20.60
2011,08,22,16,00,20.60
2011,08,22,16,01,20.50
2011,08,22,16,02,20.50
2011,08,22,16,03,20.60
2011,08,22,16,04,20.60
2011,08,22,16,05,20.60
2011,08,22,16,06,20.70
2011,08,22,16,07,20.70
2011,08,22,16,08,20.70
2011,08,22,16,09,20.80
2011,08,22,16,10,20.80
2011,08,22,16,11,20.90
2011,08,22,16,12,20.90
2011,08,22,16,13,21.00
2011,08,22,16,14,21.10
2011,08,22,16,15,21.20
2011,08,22,16,16,21.20
2011,08,22,16,17,21.20
2011,08,22,16,18,21.30
2011,08,22,16,19,21.30
2011,08,22,16,20,21.30
2011,08,22,16,21,21.30
2011,08,22,16,22,21.20
2011,08,22,16,23,21.10
2011,08,22,16,24,21.00
2011,08,22,16,25,20.90
2011,08,22,16,26,20.80
2011,08,22,16,27,20.80
2011,08,22,16,28,20.70
2011,08,22,16,29,20.70
2011,08,22,16,30,20.70
2011,08,22,16,31,20.70
2011,08,22,16,32,20.70
2011,08,22,16,33,20.70
2011,08,22,16,34,20.70
2011,08,22,16,35,20.80
2011,08,22,16,36,20.80
2011,08,22,16,37,20.80
2011,08,22,16,38,20.90
2011,08,22,16,39,20.90
2011,08,22,16,40,20.90
2011,08,22,16,41,20.90
2011,08,22,16,42,20.80
2011,08,22,16,43,20.80
2011,08,22,16,44,20.80
2011,08,22,16,45,20.80
2011,08,22,16,46,20.70
2011,08,22,16,47,20.70
2011,08,22,16,48,20.70
2011,08,22,16,49,20.70
2011,08,22,16,50,20.70
2011,08,22,16,51,20.70
2011,08,22,16,52,20.60
2011,08,22,16,53,20.60
2011,08,22,16,54,20.50
2011,08,22,16,55,20.50
2011,08,22,16,56,20.50
2011,08,22,16,57,20.50
2011,08,22,16,58,20.50
2011,08,22,16,59,20.40
2011,08,22,17,00,20.50
2011,08,22,17,01,20.50
2011,08,22,17,02,20.50
2011,08,22,17,03,20.50
2011,08,22,17,04,20.50
2011,08,22,17,05,20.50
2011,08,22,17,06,20.50
2011,08,22,17,07,20.50
2011,08,22,17,08,20.50
2011,08,22,17,09,20.50
2011,08,22,17,10,20.50
2011,08,22,17,11,20.50
2011,08,22,17,12,20.50
2011,08,22,17,13,20.50
2011,08,22,17,14,20.50
2011,08,22,17,15,20.50
2011,08,22,17,16,20.50
2011,08,22,17,17,20.50
2011,08,22,17,18,20.50
2011,08,22,17,19,20.50